Time,TemperatureF,DewpointF,PressureIn,WindDirection,WindDirectionDegrees,WindSpeedMPH,WindSpeedGustMPH,Humidity,HourlyPrecipIn,Conditions,Clouds,dailyrainin,SoftwareType,DateUTC
2013-02-02 00:03:00,8.0,2.0,30.24,WSW,246,0.0,2.0,75,0.00,,,0.00,,2013-02-02 05:03:00,
2013-02-02 00:12:00,8.0,2.0,30.24,WSW,246,0.0,2.0,75,0.00,,,0.00,,2013-02-02 05:12:00,
2013-02-02 00:22:00,8.0,2.0,30.24,SSW,200,0.0,3.0,76,0.00,,,0.00,,2013-02-02 05:22:00,
2013-02-02 00:33:00,8.0,2.0,30.24,SSW,207,0.0,2.0,76,0.00,,,0.00,,2013-02-02 05:33:00,
2013-02-02 00:42:00,8.0,2.0,30.24,SSW,207,0.0,2.0,76,0.00,,,0.00,,2013-02-02 05:42:00,
2013-02-02 00:52:00,8.0,2.0,30.23,SW,215,0.0,4.0,76,0.00,,,0.00,,2013-02-02 05:52:00,
2013-02-02 01:02:00,8.0,2.0,30.24,SW,217,0.0,2.0,77,0.00,,,0.00,,2013-02-02 06:02:00,
2013-02-02 01:12:00,8.0,2.0,30.24,SW,217,0.0,2.0,77,0.00,,,0.00,,2013-02-02 06:12:00,
2013-02-02 01:22:00,7.0,2.0,30.23,SSE,155,0.0,4.0,78,0.00,,,0.00,,2013-02-02 06:22:00,
2013-02-02 01:32:00,7.0,2.0,30.23,SSE,155,0.0,2.0,79,0.00,,,0.00,,2013-02-02 06:32:00,
2013-02-02 01:42:00,7.0,2.0,30.23,SSE,155,0.0,2.0,79,0.00,,,0.00,,2013-02-02 06:42:00,
2013-02-02 01:52:00,7.0,2.0,30.22,SSE,155,0.0,4.0,80,0.00,,,0.00,,2013-02-02 06:52:00,
2013-02-02 02:02:00,7.0,2.0,30.22,SSE,155,0.0,4.0,81,0.00,,,0.00,,2013-02-02 07:02:00,
2013-02-02 02:12:00,7.0,2.0,30.22,SSE,155,0.0,4.0,81,0.00,,,0.00,,2013-02-02 07:12:00,
2013-02-02 02:21:00,6.0,1.0,30.22,SSE,155,0.0,2.0,81,0.00,,,0.00,,2013-02-02 07:21:00,
2013-02-02 02:32:00,6.0,1.0,30.22,SSE,153,0.0,4.0,81,0.00,,,0.00,,2013-02-02 07:32:00,
2013-02-02 02:42:00,6.0,1.0,30.22,SSE,153,0.0,4.0,81,0.00,,,0.00,,2013-02-02 07:42:00,
2013-02-02 02:52:00,6.0,2.0,30.22,SSE,153,0.0,2.0,82,0.00,,,0.00,,2013-02-02 07:52:00,
2013-02-02 03:01:00,6.0,2.0,30.22,SSE,150,0.0,4.0,82,0.00,,,0.00,,2013-02-02 08:01:00,
2013-02-02 03:11:00,6.0,2.0,30.22,SSE,150,0.0,4.0,82,0.00,,,0.00,,2013-02-02 08:11:00,
2013-02-02 03:21:00,6.0,2.0,30.22,SSE,150,0.0,4.0,82,0.00,,,0.00,,2013-02-02 08:21:00,
2013-02-02 03:31:00,6.0,2.0,30.22,SSE,151,1.0,5.0,82,0.00,,,0.00,,2013-02-02 08:31:00,
2013-02-02 03:41:00,6.0,2.0,30.22,SSE,151,1.0,5.0,82,0.00,,,0.00,,2013-02-02 08:41:00,
2013-02-02 03:53:00,6.0,2.0,30.22,South,177,0.0,2.0,82,0.00,,,0.00,,2013-02-02 08:53:00,
2013-02-02 04:01:00,7.0,2.0,30.22,SSE,163,0.0,6.0,81,0.00,,,0.00,,2013-02-02 09:01:00,
2013-02-02 04:11:00,7.0,2.0,30.22,SSE,163,0.0,6.0,81,0.00,,,0.00,,2013-02-02 09:11:00,
2013-02-02 04:22:00,7.0,2.0,30.21,South,174,0.0,5.0,81,0.00,,,0.00,,2013-02-02 09:22:00,
2013-02-02 04:32:00,7.0,2.0,30.21,WSW,238,1.0,8.0,81,0.00,,,0.00,,2013-02-02 09:32:00,
2013-02-02 04:42:00,7.0,2.0,30.21,WSW,238,1.0,8.0,81,0.00,,,0.00,,2013-02-02 09:42:00,
2013-02-02 04:52:00,7.0,2.0,30.21,SSE,150,2.0,5.0,81,0.00,,,0.00,,2013-02-02 09:52:00,
2013-02-02 05:02:00,7.0,2.0,30.20,SW,223,1.0,7.0,81,0.00,,,0.00,,2013-02-02 10:02:00,
2013-02-02 05:11:00,7.0,2.0,30.20,SW,223,1.0,7.0,81,0.00,,,0.00,,2013-02-02 10:11:00,
2013-02-02 05:21:00,7.0,2.0,30.20,SSE,152,0.0,5.0,81,0.00,,,0.00,,2013-02-02 10:21:00,
2013-02-02 05:32:00,7.0,2.0,30.20,SSE,152,0.0,4.0,80,0.00,,,0.00,,2013-02-02 10:32:00,
2013-02-02 05:42:00,7.0,2.0,30.20,SSE,152,0.0,4.0,80,0.00,,,0.00,,2013-02-02 10:42:00,
2013-02-02 05:52:00,7.0,2.0,30.19,SSE,154,0.0,5.0,80,0.00,,,0.00,,2013-02-02 10:52:00,
2013-02-02 06:02:00,7.0,2.0,30.19,SSE,152,0.0,5.0,80,0.00,,,0.00,,2013-02-02 11:02:00,
2013-02-02 06:11:00,7.0,2.0,30.19,SSE,152,0.0,5.0,80,0.00,,,0.00,,2013-02-02 11:11:00,
2013-02-02 06:22:00,7.0,2.0,30.19,SSE,161,0.0,7.0,80,0.00,,,0.00,,2013-02-02 11:22:00,
2013-02-02 06:32:00,7.0,2.0,30.19,SSE,150,1.0,5.0,80,0.00,,,0.00,,2013-02-02 11:32:00,
2013-02-02 06:42:00,7.0,2.0,30.19,SSE,150,1.0,5.0,80,0.00,,,0.00,,2013-02-02 11:42:00,
2013-02-02 06:52:00,7.0,2.0,30.16,SE,133,0.0,4.0,79,0.00,,,0.00,,2013-02-02 11:52:00,
2013-02-02 07:02:00,8.0,3.0,30.16,SE,143,0.0,5.0,79,0.00,,,0.00,,2013-02-02 12:02:00,
2013-02-02 07:11:00,8.0,3.0,30.16,SE,143,0.0,5.0,79,0.00,,,0.00,,2013-02-02 12:11:00,
2013-02-02 07:22:00,8.0,3.0,30.16,ESE,110,0.0,4.0,79,0.00,,,0.00,,2013-02-02 12:22:00,
2013-02-02 07:32:00,8.0,3.0,30.16,East,95,0.0,4.0,79,0.00,,,0.00,,2013-02-02 12:32:00,
2013-02-02 07:42:00,8.0,3.0,30.16,East,95,0.0,4.0,79,0.00,,,0.00,,2013-02-02 12:42:00,
2013-02-02 07:52:00,8.0,3.0,30.16,SSE,157,0.0,4.0,79,0.00,,,0.00,,2013-02-02 12:52:00,
2013-02-02 08:03:00,8.0,3.0,30.16,SE,128,0.0,1.0,78,0.00,,,0.00,,2013-02-02 13:03:00,
2013-02-02 08:11:00,8.0,3.0,30.16,SE,128,0.0,1.0,78,0.00,,,0.00,,2013-02-02 13:11:00,
2013-02-02 08:22:00,9.0,4.0,30.16,ESE,106,0.0,4.0,78,0.00,,,0.00,,2013-02-02 13:22:00,
2013-02-02 08:32:00,10.0,4.0,30.16,SSE,157,0.0,5.0,77,0.00,,,0.00,,2013-02-02 13:32:00,
2013-02-02 08:42:00,10.0,4.0,30.16,SSE,157,0.0,5.0,77,0.00,,,0.00,,2013-02-02 13:42:00,
2013-02-02 08:52:00,11.0,5.0,30.16,SW,225,0.0,7.0,76,0.00,,,0.00,,2013-02-02 13:52:00,
2013-02-02 09:03:00,11.0,5.0,30.15,WSW,252,0.0,5.0,75,0.00,,,0.00,,2013-02-02 14:03:00,
2013-02-02 09:11:00,11.0,5.0,30.15,WSW,252,0.0,5.0,75,0.00,,,0.00,,2013-02-02 14:11:00,
2013-02-02 09:22:00,12.0,5.0,30.16,SSW,204,0.0,6.0,74,0.00,,,0.00,,2013-02-02 14:22:00,
2013-02-02 09:32:00,13.0,6.0,30.15,WSW,240,1.0,8.0,73,0.00,,,0.00,,2013-02-02 14:32:00,
2013-02-02 09:42:00,13.0,6.0,30.15,WSW,240,1.0,8.0,73,0.00,,,0.00,,2013-02-02 14:42:00,
2013-02-02 09:52:00,13.0,6.0,30.14,East,86,2.0,7.0,73,0.00,,,0.00,,2013-02-02 14:52:00,
2013-02-02 10:03:00,14.0,7.0,30.14,West,270,6.0,10.0,72,0.00,,,0.00,,2013-02-02 15:03:00,
2013-02-02 10:12:00,14.0,7.0,30.14,West,270,6.0,10.0,72,0.00,,,0.00,,2013-02-02 15:12:00,
2013-02-02 10:22:00,15.0,8.0,30.14,South,184,2.0,7.0,72,0.00,,,0.00,,2013-02-02 15:22:00,
2013-02-02 10:32:00,16.0,8.0,30.12,South,185,2.0,10.0,70,0.00,,,0.00,,2013-02-02 15:32:00,
2013-02-02 10:42:00,16.0,8.0,30.12,South,185,2.0,10.0,70,0.00,,,0.00,,2013-02-02 15:42:00,
2013-02-02 10:52:00,17.0,9.0,30.10,SSE,155,3.0,10.0,69,0.00,,,0.00,,2013-02-02 15:52:00,
2013-02-02 11:03:00,17.0,8.0,30.10,SSE,152,3.0,11.0,68,0.00,,,0.00,,2013-02-02 16:03:00,
2013-02-02 11:12:00,17.0,8.0,30.10,SSE,152,3.0,11.0,68,0.00,,,0.00,,2013-02-02 16:12:00,
2013-02-02 11:23:00,18.0,9.0,30.12,West,261,7.0,12.0,66,0.00,,,0.00,,2013-02-02 16:23:00,
2013-02-02 11:32:00,18.0,8.0,30.11,NNW,338,6.0,15.0,65,0.00,,,0.00,,2013-02-02 16:32:00,
2013-02-02 11:42:00,18.0,8.0,30.11,NNW,338,6.0,15.0,65,0.00,,,0.00,,2013-02-02 16:42:00,
2013-02-02 11:52:00,19.0,9.0,30.10,South,187,5.0,11.0,64,0.00,,,0.00,,2013-02-02 16:52:00,
2013-02-02 12:03:00,19.0,9.0,30.09,SW,227,2.0,7.0,64,0.00,,,0.00,,2013-02-02 17:03:00,
2013-02-02 12:11:00,19.0,9.0,30.09,SW,227,2.0,7.0,64,0.00,,,0.00,,2013-02-02 17:11:00,
2013-02-02 12:22:00,19.0,9.0,30.09,SSW,204,1.0,8.0,63,0.00,,,0.00,,2013-02-02 17:22:00,
2013-02-02 12:32:00,20.0,9.0,30.07,West,263,5.0,12.0,62,0.00,,,0.00,,2013-02-02 17:32:00,
2013-02-02 12:42:00,20.0,9.0,30.07,West,263,5.0,12.0,62,0.00,,,0.00,,2013-02-02 17:42:00,
2013-02-02 12:53:00,20.0,9.0,30.06,West,263,3.0,12.0,62,0.00,,,0.00,,2013-02-02 17:53:00,
2013-02-02 13:03:00,20.0,9.0,30.05,WSW,242,3.0,11.0,62,0.00,,,0.00,,2013-02-02 18:03:00,
2013-02-02 13:12:00,20.0,9.0,30.05,WSW,242,3.0,11.0,62,0.00,,,0.00,,2013-02-02 18:12:00,
2013-02-02 13:22:00,20.0,11.0,30.03,South,191,6.0,18.0,66,0.00,,,0.00,,2013-02-02 18:22:00,
2013-02-02 13:32:00,20.0,12.0,30.02,SSW,197,4.0,14.0,72,0.00,,,0.00,,2013-02-02 18:32:00,
2013-02-02 13:42:00,20.0,12.0,30.02,SSW,197,4.0,14.0,72,0.00,,,0.00,,2013-02-02 18:42:00,
2013-02-02 13:52:00,20.0,14.0,30.01,SW,223,2.0,15.0,78,0.00,,,0.00,,2013-02-02 18:52:00,
2013-02-02 14:02:00,20.0,15.0,30.00,SW,221,4.0,8.0,81,0.00,,,0.00,,2013-02-02 19:02:00,
2013-02-02 14:22:00,21.0,16.0,29.98,SW,225,2.0,12.0,81,0.00,,,0.00,,2013-02-02 19:22:00,
2013-02-02 14:32:00,21.0,16.0,29.97,ENE,71,4.0,10.0,82,0.00,,,0.00,,2013-02-02 19:32:00,
2013-02-02 14:42:00,21.0,16.0,29.97,ENE,71,4.0,10.0,82,0.00,,,0.00,,2013-02-02 19:42:00,
2013-02-02 14:52:00,22.0,17.0,29.96,SW,234,5.0,11.0,81,0.00,,,0.00,,2013-02-02 19:52:00,
2013-02-02 15:01:00,22.0,17.0,29.96,SSW,213,2.0,9.0,82,0.00,,,0.00,,2013-02-02 20:01:00,
2013-02-02 15:12:00,22.0,17.0,29.96,SSW,213,2.0,9.0,82,0.00,,,0.00,,2013-02-02 20:12:00,
2013-02-02 15:22:00,22.0,18.0,29.95,WSW,240,0.0,4.0,83,0.00,,,0.00,,2013-02-02 20:22:00,
2013-02-02 15:32:00,22.0,18.0,29.94,SW,223,0.0,4.0,84,0.00,,,0.00,,2013-02-02 20:32:00,
2013-02-02 15:42:00,22.0,18.0,29.94,SW,223,0.0,4.0,84,0.00,,,0.00,,2013-02-02 20:42:00,
2013-02-02 15:52:00,23.0,19.0,29.94,WSW,240,0.0,3.0,85,0.00,,,0.00,,2013-02-02 20:52:00,
2013-02-02 16:02:00,23.0,19.0,29.94,WSW,257,1.0,9.0,85,0.00,,,0.00,,2013-02-02 21:02:00,
2013-02-02 16:11:00,23.0,19.0,29.94,WSW,257,1.0,9.0,85,0.00,,,0.00,,2013-02-02 21:11:00,
2013-02-02 16:21:00,22.0,18.0,29.94,SSW,208,6.0,11.0,86,0.00,,,0.00,,2013-02-02 21:21:00,
2013-02-02 16:32:00,23.0,19.0,29.94,WSW,248,2.0,10.0,86,0.00,,,0.00,,2013-02-02 21:32:00,
2013-02-02 16:42:00,23.0,19.0,29.94,WSW,248,2.0,10.0,86,0.00,,,0.00,,2013-02-02 21:42:00,
2013-02-02 16:52:00,23.0,19.0,29.94,SW,220,4.0,11.0,86,0.00,,,0.00,,2013-02-02 21:52:00,
2013-02-02 17:03:00,23.0,19.0,29.94,WSW,240,4.0,11.0,86,0.00,,,0.00,,2013-02-02 22:03:00,
2013-02-02 17:12:00,23.0,19.0,29.94,WSW,240,4.0,11.0,86,0.00,,,0.00,,2013-02-02 22:12:00,
2013-02-02 17:21:00,23.0,19.0,29.93,SW,215,6.0,12.0,86,0.00,,,0.00,,2013-02-02 22:21:00,
2013-02-02 17:32:00,23.0,20.0,29.93,SW,225,3.0,10.0,87,0.00,,,0.00,,2013-02-02 22:32:00,
2013-02-02 17:42:00,23.0,20.0,29.93,SW,225,3.0,10.0,87,0.00,,,0.00,,2013-02-02 22:42:00,
2013-02-02 17:52:00,23.0,20.0,29.93,West,267,1.0,6.0,88,0.00,,,0.00,,2013-02-02 22:52:00,
2013-02-02 18:02:00,23.0,20.0,29.93,SSW,209,0.0,9.0,89,0.00,,,0.00,,2013-02-02 23:02:00,
2013-02-02 18:11:00,23.0,20.0,29.93,SSW,209,0.0,9.0,89,0.00,,,0.00,,2013-02-02 23:11:00,
2013-02-02 18:22:00,23.0,20.0,29.93,WSW,250,1.0,7.0,89,0.00,,,0.00,,2013-02-02 23:22:00,
2013-02-02 18:32:00,23.0,20.0,29.93,WSW,254,3.0,6.0,89,0.00,,,0.00,,2013-02-02 23:32:00,
2013-02-02 18:42:00,23.0,20.0,29.93,WSW,254,3.0,6.0,89,0.00,,,0.00,,2013-02-02 23:42:00,
2013-02-02 18:52:00,23.0,20.0,29.93,South,191,4.0,10.0,89,0.00,,,0.00,,2013-02-02 23:52:00,
2013-02-02 19:02:00,23.0,20.0,29.93,SW,222,5.0,9.0,89,0.00,,,0.00,,2013-02-03 00:02:00,
2013-02-02 19:11:00,23.0,20.0,29.93,SW,222,5.0,9.0,89,0.00,,,0.00,,2013-02-03 00:11:00,
2013-02-02 19:22:00,23.0,21.0,29.93,WSW,249,3.0,10.0,90,0.00,,,0.00,,2013-02-03 00:22:00,
2013-02-02 19:32:00,23.0,21.0,29.93,SW,233,4.0,9.0,90,0.00,,,0.00,,2013-02-03 00:32:00,
2013-02-02 19:42:00,23.0,21.0,29.93,SW,233,4.0,9.0,90,0.00,,,0.00,,2013-02-03 00:42:00,
2013-02-02 19:52:00,23.0,21.0,29.94,WSW,254,3.0,8.0,90,0.00,,,0.00,,2013-02-03 00:52:00,
2013-02-02 20:02:00,23.0,21.0,29.93,WSW,258,3.0,14.0,90,0.00,,,0.00,,2013-02-03 01:02:00,
2013-02-02 20:11:00,23.0,21.0,29.93,WSW,258,3.0,14.0,90,0.00,,,0.00,,2013-02-03 01:11:00,
2013-02-02 20:21:00,23.0,21.0,29.93,WNW,294,5.0,10.0,90,0.00,,,0.00,,2013-02-03 01:21:00,
2013-02-02 20:32:00,24.0,22.0,29.93,WNW,284,6.0,11.0,90,0.00,,,0.00,,2013-02-03 01:32:00,
2013-02-02 20:42:00,24.0,22.0,29.93,WNW,284,6.0,11.0,90,0.00,,,0.00,,2013-02-03 01:42:00,
2013-02-02 20:52:00,24.0,22.0,29.93,WNW,292,6.0,13.0,90,0.00,,,0.00,,2013-02-03 01:52:00,
2013-02-02 21:01:00,24.0,22.0,29.93,West,267,5.0,7.0,90,0.00,,,0.00,,2013-02-03 02:01:00,
2013-02-02 21:11:00,24.0,22.0,29.93,West,267,5.0,7.0,90,0.00,,,0.00,,2013-02-03 02:11:00,
2013-02-02 21:21:00,24.0,22.0,29.93,WSW,254,3.0,7.0,90,0.00,,,0.00,,2013-02-03 02:21:00,
2013-02-02 21:32:00,24.0,22.0,29.93,WNW,288,3.0,7.0,90,0.00,,,0.00,,2013-02-03 02:32:00,
2013-02-02 21:42:00,24.0,22.0,29.93,WNW,288,3.0,7.0,90,0.00,,,0.00,,2013-02-03 02:42:00,
2013-02-02 21:52:00,24.0,22.0,29.93,WNW,295,5.0,8.0,91,0.00,,,0.00,,2013-02-03 02:52:00,
2013-02-02 22:02:00,24.0,22.0,29.93,West,275,4.0,8.0,90,0.00,,,0.00,,2013-02-03 03:02:00,
2013-02-02 22:11:00,24.0,22.0,29.93,West,275,4.0,8.0,90,0.00,,,0.00,,2013-02-03 03:11:00,
2013-02-02 22:22:00,24.0,22.0,29.92,West,278,6.0,11.0,90,0.00,,,0.00,,2013-02-03 03:22:00,
2013-02-02 22:32:00,24.0,22.0,29.92,WNW,291,2.0,11.0,90,0.00,,,0.00,,2013-02-03 03:32:00,
2013-02-02 22:42:00,24.0,22.0,29.92,WNW,291,2.0,11.0,90,0.00,,,0.00,,2013-02-03 03:42:00,
2013-02-02 22:52:00,24.0,22.0,29.91,SW,236,5.0,8.0,91,0.00,,,0.00,,2013-02-03 03:52:00,
2013-02-02 23:01:00,24.0,22.0,29.91,WNW,288,4.0,10.0,91,0.00,,,0.00,,2013-02-03 04:01:00,
2013-02-02 23:11:00,24.0,22.0,29.91,WNW,288,4.0,10.0,91,0.00,,,0.00,,2013-02-03 04:11:00,
2013-02-02 23:22:00,24.0,22.0,29.91,WNW,294,3.0,6.0,91,0.00,,,0.00,,2013-02-03 04:22:00,
2013-02-02 23:32:00,24.0,22.0,29.90,WSW,251,4.0,7.0,91,0.00,,,0.00,,2013-02-03 04:32:00,
2013-02-02 23:42:00,24.0,22.0,29.90,WSW,251,4.0,7.0,91,0.00,,,0.00,,2013-02-03 04:42:00,
2013-02-02 23:52:00,24.0,22.0,29.90,WNW,292,5.0,8.0,91,0.00,,,0.00,,2013-02-03 04:52:00,